Retour au catalogue

STARLINK-33619

ActifCommunicationsVLEO
NORAD 63324·PAYLOAD·🇺🇸 United States

Lancé Mar 18, 2025 depuis Cape Canaveral Space Force Station

Loading…

Prochains Passages (prochaines 24 heures)

TLE

FraisSource: CelesTrak SupGP

Époque: Sep 14, 2026, 21:12 UTC

1 63324C 25057T   26257.88381944  .00069229  00000+0  25071-2 0  2575
2 63324  43.0044  41.9371 0001646 277.1484 215.6397 15.27549227    18

Suivez STARLINK-33619 en temps réel avec AllMySat

Download on the App Store